Year,Month,Day,Hour,Minute,Value (Times are PST for temperature in C)
2021,06,27,00,00,28.80
2021,06,27,00,01,28.80
2021,06,27,00,02,28.80
2021,06,27,00,03,28.70
2021,06,27,00,04,28.70
2021,06,27,00,05,28.70
2021,06,27,00,06,28.60
2021,06,27,00,07,28.50
2021,06,27,00,08,28.40
2021,06,27,00,09,28.40
2021,06,27,00,10,28.30
2021,06,27,00,11,28.30
2021,06,27,00,12,28.20
2021,06,27,00,13,28.20
2021,06,27,00,14,28.10
2021,06,27,00,15,28.10
2021,06,27,00,16,28.10
2021,06,27,00,17,28.00
2021,06,27,00,18,28.00
2021,06,27,00,19,28.00
2021,06,27,00,20,28.00
2021,06,27,00,21,28.00
2021,06,27,00,22,28.00
2021,06,27,00,23,28.00
2021,06,27,00,24,28.00
2021,06,27,00,25,28.00
2021,06,27,00,26,28.00
2021,06,27,00,27,28.00
2021,06,27,00,28,28.00
2021,06,27,00,29,27.90
2021,06,27,00,30,27.80
2021,06,27,00,31,27.70
2021,06,27,00,32,27.60
2021,06,27,00,33,27.60
2021,06,27,00,34,27.40
2021,06,27,00,35,27.30
2021,06,27,00,36,27.30
2021,06,27,00,37,27.20
2021,06,27,00,38,27.10
2021,06,27,00,39,27.00
2021,06,27,00,40,26.90
2021,06,27,00,41,26.90
2021,06,27,00,42,26.80
2021,06,27,00,43,26.80
2021,06,27,00,44,26.80
2021,06,27,00,45,26.80
2021,06,27,00,46,26.80
2021,06,27,00,47,26.80
2021,06,27,00,48,26.90
2021,06,27,00,49,26.90
2021,06,27,00,50,27.10
2021,06,27,00,51,27.10
2021,06,27,00,52,27.20
2021,06,27,00,53,27.20
2021,06,27,00,54,27.30
2021,06,27,00,55,27.30
2021,06,27,00,56,27.40
2021,06,27,00,57,27.40
2021,06,27,00,58,27.60
2021,06,27,00,59,27.60
2021,06,27,01,00,27.60
2021,06,27,01,01,27.40
2021,06,27,01,02,27.30
2021,06,27,01,03,27.30
2021,06,27,01,04,27.20
2021,06,27,01,05,27.10
2021,06,27,01,06,27.00
2021,06,27,01,07,26.80
2021,06,27,01,08,26.60
2021,06,27,01,09,26.50
2021,06,27,01,10,26.40
2021,06,27,01,11,26.20
2021,06,27,01,12,26.10
2021,06,27,01,13,26.00
2021,06,27,01,14,25.90
2021,06,27,01,15,25.80
2021,06,27,01,16,25.70
2021,06,27,01,17,25.60
2021,06,27,01,18,25.50
2021,06,27,01,19,25.40
2021,06,27,01,20,25.30
2021,06,27,01,21,25.20
2021,06,27,01,22,25.20
2021,06,27,01,23,25.10
2021,06,27,01,24,25.10
2021,06,27,01,25,25.00
2021,06,27,01,26,24.90
2021,06,27,01,27,24.90
2021,06,27,01,28,24.90
2021,06,27,01,29,24.90
2021,06,27,01,30,24.90
2021,06,27,01,31,24.90
2021,06,27,01,32,24.80
2021,06,27,01,33,24.80
2021,06,27,01,34,24.80
2021,06,27,01,35,24.80
2021,06,27,01,36,24.80
2021,06,27,01,37,24.90
2021,06,27,01,38,24.90
2021,06,27,01,39,24.90
2021,06,27,01,40,24.90
2021,06,27,01,41,24.90
2021,06,27,01,42,24.90
2021,06,27,01,43,24.90
2021,06,27,01,44,24.90
2021,06,27,01,45,24.90
2021,06,27,01,46,24.90
2021,06,27,01,47,24.90
2021,06,27,01,48,24.90
2021,06,27,01,49,24.90
2021,06,27,01,50,25.00
2021,06,27,01,51,25.00
2021,06,27,01,52,25.10
2021,06,27,01,53,25.10
2021,06,27,01,54,25.20
2021,06,27,01,55,25.30
2021,06,27,01,56,25.40
2021,06,27,01,57,25.50
2021,06,27,01,58,25.60
2021,06,27,01,59,25.70
2021,06,27,02,00,25.80
2021,06,27,02,01,25.90
2021,06,27,02,02,26.00
2021,06,27,02,03,26.00
2021,06,27,02,04,26.10
2021,06,27,02,05,26.10
2021,06,27,02,06,26.10
2021,06,27,02,07,26.10
2021,06,27,02,08,26.20
2021,06,27,02,09,26.20
2021,06,27,02,10,26.20
2021,06,27,02,11,26.20
2021,06,27,02,12,26.20
2021,06,27,02,13,26.10
2021,06,27,02,14,26.10
2021,06,27,02,15,26.10
2021,06,27,02,16,26.10
2021,06,27,02,17,26.00
2021,06,27,02,18,26.00
2021,06,27,02,19,25.90
2021,06,27,02,20,25.90
2021,06,27,02,21,25.80
2021,06,27,02,22,25.80
2021,06,27,02,23,25.80
2021,06,27,02,24,25.80
2021,06,27,02,25,25.80
2021,06,27,02,26,25.70
2021,06,27,02,27,25.80
2021,06,27,02,28,25.80
2021,06,27,02,29,25.80
2021,06,27,02,30,25.80
2021,06,27,02,31,25.80
2021,06,27,02,32,25.80
2021,06,27,02,33,25.80
2021,06,27,02,34,25.80
2021,06,27,02,35,25.80
2021,06,27,02,36,25.80
2021,06,27,02,37,25.80
2021,06,27,02,38,25.80
2021,06,27,02,39,25.80
2021,06,27,02,40,25.80
2021,06,27,02,41,25.80
2021,06,27,02,42,25.70
2021,06,27,02,43,25.70
2021,06,27,02,44,25.70
2021,06,27,02,45,25.70
2021,06,27,02,46,25.70
2021,06,27,02,47,25.70
2021,06,27,02,48,25.60
2021,06,27,02,49,25.60
2021,06,27,02,50,25.60
2021,06,27,02,51,25.60
2021,06,27,02,52,25.60
2021,06,27,02,53,25.60
2021,06,27,02,54,25.70
2021,06,27,02,55,25.70
2021,06,27,02,56,25.70
2021,06,27,02,57,25.70
2021,06,27,02,58,25.60
2021,06,27,02,59,25.60
2021,06,27,03,00,25.60
2021,06,27,03,01,25.60
2021,06,27,03,02,25.50
2021,06,27,03,03,25.50
2021,06,27,03,04,25.50
2021,06,27,03,05,25.50
2021,06,27,03,06,25.40
2021,06,27,03,07,25.40
2021,06,27,03,08,25.40
2021,06,27,03,09,25.40
2021,06,27,03,10,25.40
2021,06,27,03,11,25.40
2021,06,27,03,12,25.40
2021,06,27,03,13,25.40
2021,06,27,03,14,25.40
2021,06,27,03,15,25.40
2021,06,27,03,16,25.40
2021,06,27,03,17,25.40
2021,06,27,03,18,25.40
2021,06,27,03,19,25.40
2021,06,27,03,20,25.30
2021,06,27,03,21,25.30
2021,06,27,03,22,25.30
2021,06,27,03,23,25.30
2021,06,27,03,24,25.30
2021,06,27,03,25,25.30
2021,06,27,03,26,25.20
2021,06,27,03,27,25.20
2021,06,27,03,28,25.20
2021,06,27,03,29,25.10
2021,06,27,03,30,25.10
2021,06,27,03,31,25.00
2021,06,27,03,32,25.00
2021,06,27,03,33,24.90
2021,06,27,03,34,24.80
2021,06,27,03,35,24.80
2021,06,27,03,36,24.70
2021,06,27,03,37,24.70
2021,06,27,03,38,24.60
2021,06,27,03,39,24.60
2021,06,27,03,40,24.50
2021,06,27,03,41,24.40
2021,06,27,03,42,24.40
2021,06,27,03,43,24.30
2021,06,27,03,44,24.20
2021,06,27,03,45,24.20
2021,06,27,03,46,24.10
2021,06,27,03,47,24.10
2021,06,27,03,48,24.10
2021,06,27,03,49,24.10
2021,06,27,03,50,24.10
2021,06,27,03,51,24.10
2021,06,27,03,52,24.10
2021,06,27,03,53,24.10
2021,06,27,03,54,24.10
2021,06,27,03,55,24.10
2021,06,27,03,56,24.10
2021,06,27,03,57,24.10
2021,06,27,03,58,24.10
2021,06,27,03,59,24.10
2021,06,27,04,00,24.10
2021,06,27,04,01,24.10
2021,06,27,04,02,24.10
2021,06,27,04,03,24.20
2021,06,27,04,04,24.20
2021,06,27,04,05,24.20
2021,06,27,04,06,24.20
2021,06,27,04,07,24.30
2021,06,27,04,08,24.30
2021,06,27,04,09,24.30
2021,06,27,04,10,24.30
2021,06,27,04,11,24.30
2021,06,27,04,12,24.30
2021,06,27,04,13,24.30
2021,06,27,04,14,24.20
2021,06,27,04,15,24.20
2021,06,27,04,16,24.20
2021,06,27,04,17,24.10
2021,06,27,04,18,24.10
2021,06,27,04,19,24.10
2021,06,27,04,20,24.10
2021,06,27,04,21,23.90
2021,06,27,04,22,23.90
2021,06,27,04,23,23.80
2021,06,27,04,24,23.80
2021,06,27,04,25,23.70
2021,06,27,04,26,23.70
2021,06,27,04,27,23.70
2021,06,27,04,28,23.70
2021,06,27,04,29,23.60
2021,06,27,04,30,23.60
2021,06,27,04,31,23.60
2021,06,27,04,32,23.60
2021,06,27,04,33,23.50
2021,06,27,04,34,23.40
2021,06,27,04,35,23.40
2021,06,27,04,36,23.40
2021,06,27,04,37,23.30
2021,06,27,04,38,23.30
2021,06,27,04,39,23.30
2021,06,27,04,40,23.30
2021,06,27,04,41,23.30
2021,06,27,04,42,23.30
2021,06,27,04,43,23.20
2021,06,27,04,44,23.20
2021,06,27,04,45,23.10
2021,06,27,04,46,23.10
2021,06,27,04,47,23.10
2021,06,27,04,48,23.10
2021,06,27,04,49,23.00
2021,06,27,04,50,22.90
2021,06,27,04,51,22.90
2021,06,27,04,52,22.90
2021,06,27,04,53,22.90
2021,06,27,04,54,22.90
2021,06,27,04,55,22.90
2021,06,27,04,56,23.00
2021,06,27,04,57,23.00
2021,06,27,04,58,23.00
2021,06,27,04,59,23.00
2021,06,27,05,00,23.00
2021,06,27,05,01,22.90
2021,06,27,05,02,23.00
2021,06,27,05,03,23.00
2021,06,27,05,04,22.90
2021,06,27,05,05,23.00
2021,06,27,05,06,23.10
2021,06,27,05,07,23.10
2021,06,27,05,08,23.10
2021,06,27,05,09,23.10
2021,06,27,05,10,23.10
2021,06,27,05,11,23.10
2021,06,27,05,12,23.20
2021,06,27,05,13,23.20
2021,06,27,05,14,23.20
2021,06,27,05,15,23.20
2021,06,27,05,16,23.20
2021,06,27,05,17,23.30
2021,06,27,05,18,23.30
2021,06,27,05,19,23.30
2021,06,27,05,20,23.30
2021,06,27,05,21,23.30
2021,06,27,05,22,23.30
2021,06,27,05,23,23.30
2021,06,27,05,24,23.30
2021,06,27,05,25,23.30
2021,06,27,05,26,23.30
2021,06,27,05,27,23.30
2021,06,27,05,28,23.40
2021,06,27,05,29,23.40
2021,06,27,05,30,23.40
2021,06,27,05,31,23.40
2021,06,27,05,32,23.40
2021,06,27,05,33,23.50
2021,06,27,05,34,23.60
2021,06,27,05,35,23.60
2021,06,27,05,36,23.60
2021,06,27,05,37,23.60
2021,06,27,05,38,23.60
2021,06,27,05,39,23.70
2021,06,27,05,40,23.70
2021,06,27,05,41,23.70
2021,06,27,05,42,23.70
2021,06,27,05,43,23.80
2021,06,27,05,44,23.80
2021,06,27,05,45,23.90
2021,06,27,05,46,24.00
2021,06,27,05,47,24.10
2021,06,27,05,48,24.10
2021,06,27,05,49,24.20
2021,06,27,05,50,24.30
2021,06,27,05,51,24.40
2021,06,27,05,52,24.40
2021,06,27,05,53,24.50
2021,06,27,05,54,24.50
2021,06,27,05,55,24.50
2021,06,27,05,56,24.50
2021,06,27,05,57,24.60
2021,06,27,05,58,24.60
2021,06,27,05,59,24.60
2021,06,27,06,00,24.70
2021,06,27,06,01,24.70
2021,06,27,06,02,24.80
2021,06,27,06,03,24.80
2021,06,27,06,04,24.90
2021,06,27,06,05,25.00
2021,06,27,06,06,25.10
2021,06,27,06,07,25.20
2021,06,27,06,08,25.30
2021,06,27,06,09,25.40
2021,06,27,06,10,25.40
2021,06,27,06,11,25.50
2021,06,27,06,12,25.60
2021,06,27,06,13,25.60
2021,06,27,06,14,25.70
2021,06,27,06,15,25.60
2021,06,27,06,16,25.60
2021,06,27,06,17,25.50
2021,06,27,06,18,25.40
2021,06,27,06,19,25.30
2021,06,27,06,20,25.20
2021,06,27,06,21,25.10
2021,06,27,06,22,25.00
2021,06,27,06,23,24.90
2021,06,27,06,24,24.80
2021,06,27,06,25,24.80
2021,06,27,06,26,24.80
2021,06,27,06,27,24.80
2021,06,27,06,28,24.80
2021,06,27,06,29,24.80
2021,06,27,06,30,24.80
2021,06,27,06,31,24.80
2021,06,27,06,32,24.80
2021,06,27,06,33,24.90
2021,06,27,06,34,24.90
2021,06,27,06,35,24.90
2021,06,27,06,36,24.90
2021,06,27,06,37,25.00
2021,06,27,06,38,25.00
2021,06,27,06,39,25.10
2021,06,27,06,40,25.10
2021,06,27,06,41,25.20
2021,06,27,06,42,25.20
2021,06,27,06,43,25.30
2021,06,27,06,44,25.30
2021,06,27,06,45,25.30
2021,06,27,06,46,25.30
2021,06,27,06,47,25.30
2021,06,27,06,48,25.40
2021,06,27,06,49,25.40
2021,06,27,06,50,25.40
2021,06,27,06,51,25.40
2021,06,27,06,52,25.40
2021,06,27,06,53,25.40
2021,06,27,06,54,25.40
2021,06,27,06,55,25.50
2021,06,27,06,56,25.50
2021,06,27,06,57,25.50
2021,06,27,06,58,25.60
2021,06,27,06,59,25.60
2021,06,27,07,00,25.70
2021,06,27,07,01,25.70
2021,06,27,07,02,25.80
2021,06,27,07,03,25.90
2021,06,27,07,04,25.90
2021,06,27,07,05,26.00
2021,06,27,07,06,26.10
2021,06,27,07,07,26.20
2021,06,27,07,08,26.20
2021,06,27,07,09,26.30
2021,06,27,07,10,26.30
2021,06,27,07,11,26.40
2021,06,27,07,12,26.40
2021,06,27,07,13,26.60
2021,06,27,07,14,26.60
2021,06,27,07,15,26.60
2021,06,27,07,16,26.60
2021,06,27,07,17,26.60
2021,06,27,07,18,26.60
2021,06,27,07,19,26.70
2021,06,27,07,20,26.70
2021,06,27,07,21,26.70
2021,06,27,07,22,26.70
2021,06,27,07,23,26.80
2021,06,27,07,24,26.80
2021,06,27,07,25,26.80
2021,06,27,07,26,26.80
2021,06,27,07,27,26.90
2021,06,27,07,28,26.90
2021,06,27,07,29,26.90
2021,06,27,07,30,26.90
2021,06,27,07,31,26.90
2021,06,27,07,32,26.90
2021,06,27,07,33,26.90
2021,06,27,07,34,26.90
2021,06,27,07,35,27.00
2021,06,27,07,36,27.10
2021,06,27,07,37,27.10
2021,06,27,07,38,27.10
2021,06,27,07,39,27.10
2021,06,27,07,40,27.20
2021,06,27,07,41,27.20
2021,06,27,07,42,27.30
2021,06,27,07,43,27.30
2021,06,27,07,44,27.30
2021,06,27,07,45,27.30
2021,06,27,07,46,27.30
2021,06,27,07,47,27.30
2021,06,27,07,48,27.30
2021,06,27,07,49,27.30
2021,06,27,07,50,27.30
2021,06,27,07,51,27.20
2021,06,27,07,52,27.20
2021,06,27,07,53,27.20
2021,06,27,07,54,27.20
2021,06,27,07,55,27.10
2021,06,27,07,56,27.00
2021,06,27,07,57,26.90
2021,06,27,07,58,26.80
2021,06,27,07,59,26.70
2021,06,27,08,00,26.60
2021,06,27,08,01,26.60
2021,06,27,08,02,26.50
2021,06,27,08,03,26.30
2021,06,27,08,04,26.10
2021,06,27,08,05,26.00
2021,06,27,08,06,25.90
2021,06,27,08,07,25.80
2021,06,27,08,08,25.70
2021,06,27,08,09,25.50
2021,06,27,08,10,25.40
2021,06,27,08,11,25.40
2021,06,27,08,12,25.40
2021,06,27,08,13,25.30
2021,06,27,08,14,25.30
2021,06,27,08,15,25.30
2021,06,27,08,16,25.40
2021,06,27,08,17,25.40
2021,06,27,08,18,25.40
2021,06,27,08,19,25.50
2021,06,27,08,20,25.50
2021,06,27,08,21,25.50
2021,06,27,08,22,25.60
2021,06,27,08,23,25.60
2021,06,27,08,24,25.60
2021,06,27,08,25,25.60
2021,06,27,08,26,25.70
2021,06,27,08,27,25.70
2021,06,27,08,28,25.70
2021,06,27,08,29,25.70
2021,06,27,08,30,25.80
2021,06,27,08,31,25.80
2021,06,27,08,32,25.80
2021,06,27,08,33,25.80
2021,06,27,08,34,25.90
2021,06,27,08,35,25.90
2021,06,27,08,36,26.00
2021,06,27,08,37,26.00
2021,06,27,08,38,26.10
2021,06,27,08,39,26.10
2021,06,27,08,40,26.20
2021,06,27,08,41,26.20
2021,06,27,08,42,26.20
2021,06,27,08,43,26.20
2021,06,27,08,44,26.30
2021,06,27,08,45,26.30
2021,06,27,08,46,26.30
2021,06,27,08,47,26.30
2021,06,27,08,48,26.30
2021,06,27,08,49,26.30
2021,06,27,08,50,26.30
2021,06,27,08,51,26.30
2021,06,27,08,52,26.30
2021,06,27,08,53,26.30
2021,06,27,08,54,26.30
2021,06,27,08,55,26.30
2021,06,27,08,56,26.30
2021,06,27,08,57,26.30
2021,06,27,08,58,26.30
2021,06,27,08,59,26.20
2021,06,27,09,00,26.20
2021,06,27,09,01,26.20
2021,06,27,09,02,26.30
2021,06,27,09,03,26.30
2021,06,27,09,04,26.30
2021,06,27,09,05,26.30
2021,06,27,09,06,26.40
2021,06,27,09,07,26.40
2021,06,27,09,08,26.50
2021,06,27,09,09,26.60
2021,06,27,09,10,26.60
2021,06,27,09,11,26.60
2021,06,27,09,12,26.60
2021,06,27,09,13,26.60
2021,06,27,09,14,26.70
2021,06,27,09,15,26.80
2021,06,27,09,16,26.80
2021,06,27,09,17,26.80
2021,06,27,09,18,26.80
2021,06,27,09,19,26.90
2021,06,27,09,20,26.90
2021,06,27,09,21,27.10
2021,06,27,09,22,27.10
2021,06,27,09,23,27.20
2021,06,27,09,24,27.30
2021,06,27,09,25,27.40
2021,06,27,09,26,27.50
2021,06,27,09,27,27.60
2021,06,27,09,28,27.60
2021,06,27,09,29,27.70
2021,06,27,09,30,27.60
2021,06,27,09,31,27.50
2021,06,27,09,32,27.30
2021,06,27,09,33,27.20
2021,06,27,09,34,27.10
2021,06,27,09,35,27.00
2021,06,27,09,36,26.80
2021,06,27,09,37,26.70
2021,06,27,09,38,26.60
2021,06,27,09,39,26.60
2021,06,27,09,40,26.70
2021,06,27,09,41,26.70
2021,06,27,09,42,26.70
2021,06,27,09,43,26.70
2021,06,27,09,44,26.80
2021,06,27,09,45,26.80
2021,06,27,09,46,26.90
2021,06,27,09,47,26.90
2021,06,27,09,48,27.10
2021,06,27,09,49,27.10
2021,06,27,09,50,27.20
2021,06,27,09,51,27.20
2021,06,27,09,52,27.30
2021,06,27,09,53,27.30
2021,06,27,09,54,27.30
2021,06,27,09,55,27.30
2021,06,27,09,56,27.40
2021,06,27,09,57,27.50
2021,06,27,09,58,27.60
2021,06,27,09,59,27.70
2021,06,27,10,00,27.70
2021,06,27,10,01,27.70
2021,06,27,10,02,27.70
2021,06,27,10,03,27.70
2021,06,27,10,04,27.70
2021,06,27,10,05,27.70
2021,06,27,10,06,27.70
2021,06,27,10,07,27.70
2021,06,27,10,08,27.70
2021,06,27,10,09,27.70
2021,06,27,10,10,27.70
2021,06,27,10,11,27.80
2021,06,27,10,12,27.80
2021,06,27,10,13,27.90
2021,06,27,10,14,28.00
2021,06,27,10,15,28.00
2021,06,27,10,16,28.10
2021,06,27,10,17,28.20
2021,06,27,10,18,28.20
2021,06,27,10,19,28.30
2021,06,27,10,20,28.30
2021,06,27,10,21,28.40
2021,06,27,10,22,28.40
2021,06,27,10,23,28.50
2021,06,27,10,24,28.60
2021,06,27,10,25,28.60
2021,06,27,10,26,28.60
2021,06,27,10,27,28.60
2021,06,27,10,28,28.70
2021,06,27,10,29,28.70
2021,06,27,10,30,28.70
2021,06,27,10,31,28.70
2021,06,27,10,32,28.60
2021,06,27,10,33,28.60
2021,06,27,10,34,28.60
2021,06,27,10,35,28.60
2021,06,27,10,36,28.60
2021,06,27,10,37,28.70
2021,06,27,10,38,28.70
2021,06,27,10,39,28.70
2021,06,27,10,40,28.70
2021,06,27,10,41,28.70
2021,06,27,10,42,28.80
2021,06,27,10,43,28.80
2021,06,27,10,44,28.80
2021,06,27,10,45,28.80
2021,06,27,10,46,28.80
2021,06,27,10,47,28.80
2021,06,27,10,48,28.80
2021,06,27,10,49,28.90
2021,06,27,10,50,28.90
2021,06,27,10,51,29.00
2021,06,27,10,52,29.10
2021,06,27,10,53,29.10
2021,06,27,10,54,29.20
2021,06,27,10,55,29.30
2021,06,27,10,56,29.30
2021,06,27,10,57,29.40
2021,06,27,10,58,29.40
2021,06,27,10,59,29.40
2021,06,27,11,00,29.30
2021,06,27,11,01,29.30
2021,06,27,11,02,29.30
2021,06,27,11,03,29.30
2021,06,27,11,04,29.40
2021,06,27,11,05,29.40
2021,06,27,11,06,29.50
2021,06,27,11,07,29.50
2021,06,27,11,08,29.60
2021,06,27,11,09,29.60
2021,06,27,11,10,29.60
2021,06,27,11,11,29.60
2021,06,27,11,12,29.60
2021,06,27,11,13,29.60
2021,06,27,11,14,29.60
2021,06,27,11,15,29.60
2021,06,27,11,16,29.70
2021,06,27,11,17,29.70
2021,06,27,11,18,29.60
2021,06,27,11,19,29.60
2021,06,27,11,20,29.60
2021,06,27,11,21,29.60
2021,06,27,11,22,29.60
2021,06,27,11,23,29.60
2021,06,27,11,24,29.70
2021,06,27,11,25,29.70
2021,06,27,11,26,29.70
2021,06,27,11,27,29.70
2021,06,27,11,28,29.60
2021,06,27,11,29,29.60
2021,06,27,11,30,29.60
2021,06,27,11,31,29.60
2021,06,27,11,32,29.50
2021,06,27,11,33,29.50
2021,06,27,11,34,29.60
2021,06,27,11,35,29.60
2021,06,27,11,36,29.60
2021,06,27,11,37,29.60
2021,06,27,11,38,29.70
2021,06,27,11,39,29.70
2021,06,27,11,40,29.70
2021,06,27,11,41,29.70
2021,06,27,11,42,29.70
2021,06,27,11,43,29.70
2021,06,27,11,44,29.70
2021,06,27,11,45,29.70
2021,06,27,11,46,29.80
2021,06,27,11,47,29.80
2021,06,27,11,48,29.80
2021,06,27,11,49,29.80
2021,06,27,11,50,29.80
2021,06,27,11,51,29.80
2021,06,27,11,52,29.80
2021,06,27,11,53,29.90
2021,06,27,11,54,29.90
2021,06,27,11,55,29.90
2021,06,27,11,56,29.90
2021,06,27,11,57,29.90
2021,06,27,11,58,30.00
2021,06,27,11,59,30.10
2021,06,27,12,00,30.20
2021,06,27,12,01,30.30
2021,06,27,12,02,30.30
2021,06,27,12,03,30.50
2021,06,27,12,04,30.60
2021,06,27,12,05,30.70
2021,06,27,12,06,30.80
2021,06,27,12,07,30.90
2021,06,27,12,08,31.00
2021,06,27,12,09,31.00
2021,06,27,12,10,31.10
2021,06,27,12,11,31.20
2021,06,27,12,12,31.20
2021,06,27,12,13,31.40
2021,06,27,12,14,31.50
2021,06,27,12,15,31.60
2021,06,27,12,16,31.70
2021,06,27,12,17,31.80
2021,06,27,12,18,31.90
2021,06,27,12,19,31.90
2021,06,27,12,20,31.90
2021,06,27,12,21,31.80
2021,06,27,12,22,31.80
2021,06,27,12,23,31.90
2021,06,27,12,24,31.90
2021,06,27,12,25,31.90
2021,06,27,12,26,31.90
2021,06,27,12,27,31.90
2021,06,27,12,28,31.90
2021,06,27,12,29,31.80
2021,06,27,12,30,31.80
2021,06,27,12,31,31.70
2021,06,27,12,32,31.70
2021,06,27,12,33,31.70
2021,06,27,12,34,31.70
2021,06,27,12,35,31.70
2021,06,27,12,36,31.70
2021,06,27,12,37,31.60
2021,06,27,12,38,31.50
2021,06,27,12,39,31.40
2021,06,27,12,40,31.40
2021,06,27,12,41,31.30
2021,06,27,12,42,31.20
2021,06,27,12,43,31.20
2021,06,27,12,44,31.20
2021,06,27,12,45,31.20
2021,06,27,12,46,31.20
2021,06,27,12,47,31.30
2021,06,27,12,48,31.30
2021,06,27,12,49,31.30
2021,06,27,12,50,31.30
2021,06,27,12,51,31.20
2021,06,27,12,52,31.20
2021,06,27,12,53,31.10
2021,06,27,12,54,31.10
2021,06,27,12,55,31.00
2021,06,27,12,56,30.90
2021,06,27,12,57,30.90
2021,06,27,12,58,30.90
2021,06,27,12,59,30.80
2021,06,27,13,00,30.80
2021,06,27,13,01,30.80
2021,06,27,13,02,30.90
2021,06,27,13,03,30.90
2021,06,27,13,04,30.90
2021,06,27,13,05,30.90
2021,06,27,13,06,30.90
2021,06,27,13,07,30.90
2021,06,27,13,08,31.00
2021,06,27,13,09,31.00
2021,06,27,13,10,31.00
2021,06,27,13,11,31.10
2021,06,27,13,12,31.10
2021,06,27,13,13,31.20
2021,06,27,13,14,31.20
2021,06,27,13,15,31.30
2021,06,27,13,16,31.30
2021,06,27,13,17,31.30
2021,06,27,13,18,31.40
2021,06,27,13,19,31.40
2021,06,27,13,20,31.50
2021,06,27,13,21,31.60
2021,06,27,13,22,31.60
2021,06,27,13,23,31.60
2021,06,27,13,24,31.60
2021,06,27,13,25,31.60
2021,06,27,13,26,31.60
2021,06,27,13,27,31.60
2021,06,27,13,28,31.60
2021,06,27,13,29,31.70
2021,06,27,13,30,31.90
2021,06,27,13,31,32.00
2021,06,27,13,32,32.10
2021,06,27,13,33,32.20
2021,06,27,13,34,32.20
2021,06,27,13,35,32.10
2021,06,27,13,36,32.10
2021,06,27,13,37,32.10
2021,06,27,13,38,32.10
2021,06,27,13,39,32.10
2021,06,27,13,40,32.10
2021,06,27,13,41,32.10
2021,06,27,13,42,32.10
2021,06,27,13,43,32.20
2021,06,27,13,44,32.20
2021,06,27,13,45,32.20
2021,06,27,13,46,32.20
2021,06,27,13,47,32.10
2021,06,27,13,48,32.20
2021,06,27,13,49,32.10
2021,06,27,13,50,32.10
2021,06,27,13,51,32.10
2021,06,27,13,52,32.20
2021,06,27,13,53,32.20
2021,06,27,13,54,32.20
2021,06,27,13,55,32.20
2021,06,27,13,56,32.20
2021,06,27,13,57,32.20
2021,06,27,13,58,32.30
2021,06,27,13,59,32.40
2021,06,27,14,00,32.40
2021,06,27,14,01,32.50
2021,06,27,14,02,32.60
2021,06,27,14,03,32.60
2021,06,27,14,04,32.60
2021,06,27,14,05,32.60
2021,06,27,14,06,32.60
2021,06,27,14,07,32.60
2021,06,27,14,08,32.60
2021,06,27,14,09,32.60
2021,06,27,14,10,32.60
2021,06,27,14,11,32.50
2021,06,27,14,12,32.50
2021,06,27,14,13,32.50
2021,06,27,14,14,32.50
2021,06,27,14,15,32.40
2021,06,27,14,16,32.40
2021,06,27,14,17,32.40
2021,06,27,14,18,32.40
2021,06,27,14,19,32.50
2021,06,27,14,20,32.50
2021,06,27,14,21,32.50
2021,06,27,14,22,32.50
2021,06,27,14,23,32.50
2021,06,27,14,24,32.50
2021,06,27,14,25,32.50
2021,06,27,14,26,32.50
2021,06,27,14,27,32.50
2021,06,27,14,28,32.60
2021,06,27,14,29,32.60
2021,06,27,14,30,32.80
2021,06,27,14,31,32.80
2021,06,27,14,32,32.80
2021,06,27,14,33,32.90
2021,06,27,14,34,33.00
2021,06,27,14,35,33.00
2021,06,27,14,36,33.10
2021,06,27,14,37,33.10
2021,06,27,14,38,33.10
2021,06,27,14,39,33.20
2021,06,27,14,40,33.20
2021,06,27,14,41,33.20
2021,06,27,14,42,33.20
2021,06,27,14,43,33.20
2021,06,27,14,44,33.20
2021,06,27,14,45,33.30
2021,06,27,14,46,33.40
2021,06,27,14,47,33.40
2021,06,27,14,48,33.50
2021,06,27,14,49,33.60
2021,06,27,14,50,33.60
2021,06,27,14,51,33.60
2021,06,27,14,52,33.60
2021,06,27,14,53,33.60
2021,06,27,14,54,33.60
2021,06,27,14,55,33.60
2021,06,27,14,56,33.60
2021,06,27,14,57,33.60
2021,06,27,14,58,33.60
2021,06,27,14,59,33.50
2021,06,27,15,00,33.50
2021,06,27,15,01,33.50
2021,06,27,15,02,33.60
2021,06,27,15,03,33.70
2021,06,27,15,04,33.80
2021,06,27,15,05,33.80
2021,06,27,15,06,34.00
2021,06,27,15,07,34.00
2021,06,27,15,08,34.00
2021,06,27,15,09,34.10
2021,06,27,15,10,34.10
2021,06,27,15,11,34.10
2021,06,27,15,12,34.10
2021,06,27,15,13,34.20
2021,06,27,15,14,34.20
2021,06,27,15,15,34.30
2021,06,27,15,16,34.30
2021,06,27,15,17,34.30
2021,06,27,15,18,34.30
2021,06,27,15,19,34.30
2021,06,27,15,20,34.30
2021,06,27,15,21,34.30
2021,06,27,15,22,34.30
2021,06,27,15,23,34.30
2021,06,27,15,24,34.30
2021,06,27,15,25,34.30
2021,06,27,15,26,34.20
2021,06,27,15,27,34.10
2021,06,27,15,28,34.10
2021,06,27,15,29,34.10
2021,06,27,15,30,34.10
2021,06,27,15,31,34.10
2021,06,27,15,32,34.10
2021,06,27,15,33,34.00
2021,06,27,15,34,34.00
2021,06,27,15,35,34.00
2021,06,27,15,36,34.00
2021,06,27,15,37,34.00
2021,06,27,15,38,34.00
2021,06,27,15,39,34.00
2021,06,27,15,40,34.00
2021,06,27,15,41,33.90
2021,06,27,15,42,33.80
2021,06,27,15,43,33.80
2021,06,27,15,44,33.80
2021,06,27,15,45,33.80
2021,06,27,15,46,33.80
2021,06,27,15,47,33.80
2021,06,27,15,48,33.70
2021,06,27,15,49,33.80
2021,06,27,15,50,33.80
2021,06,27,15,51,33.70
2021,06,27,15,52,33.80
2021,06,27,15,53,33.90
2021,06,27,15,54,34.00
2021,06,27,15,55,34.00
2021,06,27,15,56,34.00
2021,06,27,15,57,34.00
2021,06,27,15,58,34.00
2021,06,27,15,59,34.00
2021,06,27,16,00,34.10
2021,06,27,16,01,34.10
2021,06,27,16,02,34.10
2021,06,27,16,03,34.10
2021,06,27,16,04,34.10
2021,06,27,16,05,34.10
2021,06,27,16,06,34.10
2021,06,27,16,07,34.10
2021,06,27,16,08,34.20
2021,06,27,16,09,34.20
2021,06,27,16,10,34.20
2021,06,27,16,11,34.20
2021,06,27,16,12,34.20
2021,06,27,16,13,34.20
2021,06,27,16,14,34.30
2021,06,27,16,15,34.30
2021,06,27,16,16,34.30
2021,06,27,16,17,34.40
2021,06,27,16,18,34.30
2021,06,27,16,19,34.30
2021,06,27,16,20,34.30
2021,06,27,16,21,34.30
2021,06,27,16,22,34.30
2021,06,27,16,23,34.30
2021,06,27,16,24,34.30
2021,06,27,16,25,34.20
2021,06,27,16,26,34.20
2021,06,27,16,27,34.20
2021,06,27,16,28,34.20
2021,06,27,16,29,34.20
2021,06,27,16,30,34.20
2021,06,27,16,31,34.20
2021,06,27,16,32,34.20
2021,06,27,16,33,34.30
2021,06,27,16,34,34.30
2021,06,27,16,35,34.20
2021,06,27,16,36,34.30
2021,06,27,16,37,34.30
2021,06,27,16,38,34.30
2021,06,27,16,39,34.30
2021,06,27,16,40,34.30
2021,06,27,16,41,34.30
2021,06,27,16,42,34.40
2021,06,27,16,43,34.40
2021,06,27,16,44,34.40
2021,06,27,16,45,34.40
2021,06,27,16,46,34.40
2021,06,27,16,47,34.40
2021,06,27,16,48,34.40
2021,06,27,16,49,34.30
2021,06,27,16,50,34.30
2021,06,27,16,51,34.30
2021,06,27,16,52,34.30
2021,06,27,16,53,34.40
2021,06,27,16,54,34.40
2021,06,27,16,55,34.40
2021,06,27,16,56,34.30
2021,06,27,16,57,34.30
2021,06,27,16,58,34.30
2021,06,27,16,59,34.20
2021,06,27,17,00,34.20
2021,06,27,17,01,34.20
2021,06,27,17,02,34.30
2021,06,27,17,03,34.30
2021,06,27,17,04,34.20
2021,06,27,17,05,34.20
2021,06,27,17,06,34.20
2021,06,27,17,07,34.20
2021,06,27,17,08,34.30
2021,06,27,17,09,34.30
2021,06,27,17,10,34.30
2021,06,27,17,11,34.30
2021,06,27,17,12,34.30
2021,06,27,17,13,34.40
2021,06,27,17,14,34.40
2021,06,27,17,15,34.40
2021,06,27,17,16,34.40
2021,06,27,17,17,34.40
2021,06,27,17,18,34.40
2021,06,27,17,19,34.40